This demonstration page uses our WeatherBlox Daily Observations layout. Learn more.

Left ArrowRight Arrow

31.31129, -92.44514

Hourly Observations for December 2, 2021

Temp ( °F °C ) Dew Point ( °F °C ) Humidity (%) Winds ( mph kmh ) Pressure ( in mb ) Visibility ( mi km ) Precip ( " mm )
12:26 am 00:26 Clear with Mist and Fog 55 12.8 52 11.1 90 90 Calm 30.12 1020 2 3 0.00 0.00
12:34 am 00:34 Clear with Mist and Fog 57 13.9 55 12.8 93 93 S 3 6 30.12 1020 3 5 0.00 0.00
12:53 am 00:53 Clear with Mist and Fog 57 13.9 55 12.8 93 93 SSE 3 6 30.13 1020 4 6 0.00 0.00
12:57 am 00:57 Clear with Mist and Fog 56 13.3 54 12.2 93 93 SSE 3 6 30.11 1020 2 2 0.00 0.00
1:07 am 01:07 Clear with Mist and Fog 55 12.8 53 11.7 93 93 Calm 30.12 1020 4 6 0.00 0.00
1:44 am 01:44 Partly Cloudy 54 12.2 52 11.1 93 93 Calm 30.13 1020 8 13 0.00 0.00
1:53 am 01:53 Mostly Cloudy 55 12.8 52 11.1 90 90 Calm 30.14 1021 9 14 0.00 0.00
2:53 am 02:53 Mostly Cloudy 55 12.8 53 11.7 93 93 Calm 30.14 1021 8 13 0.00 0.00
3:32 am 03:32 Partly Cloudy with Mist and Fog 54 12.2 52 11.1 93 93 Calm 30.13 1020 6 10 0.00 0.00
3:49 am 03:49 Mostly Cloudy with Mist and Fog 54 12 52 11 94 94 SSE 3 6 30.13 1020 3 5 0.00 0.00
3:53 am 03:53 Mostly Cloudy with Fog 53 11.7 51 10.6 93 93 SSE 5 7 30.14 1021 1 1 0.00 0.00
4:01 am 04:01 Mostly Cloudy with Fog 53 11.7 51 10.6 93 93 SSE 5 7 30.13 1020 0 0 0.00 0.00
4:38 am 04:38 Partly Cloudy with Mist and Fog 52 11.1 51 10.6 97 97 SE 5 7 30.13 1020 1 2 0.00 0.00
4:40 am 04:40 Partly Cloudy with Mist and Fog 52 11.1 51 10.6 97 97 SE 5 7 30.13 1020 3 5 0.00 0.00
4:42 am 04:42 Mostly Cloudy with Mist and Fog 52 11.1 51 10.6 97 97 SE 3 6 30.13 1020 2 3 0.00 0.00
4:46 am 04:46 Mostly Cloudy with Mist and Fog 53 11.7 51 10.6 93 93 SSE 3 6 30.13 1020 1 1 0.00 0.00
4:53 am 04:53 Mostly Cloudy with Fog 54 12.2 52 11.1 93 93 S 3 6 30.14 1021 1 1 0.00 0.00
5:20 am 05:20 Mostly Cloudy with Mist and Fog 56 13.3 55 12.8 97 97 Calm 30.14 1021 1 2 0.00 0.00
5:29 am 05:29 Clear with Mist and Fog 56 13.3 55 12.8 97 97 Calm 30.14 1021 1 2 0.00 0.00
5:53 am 05:53 Clear with Fog 53 11.7 52 11.1 96 96 Calm 30.16 1021 1 1 0.00 0.00
6:00 am 06:00 Mostly Cloudy with Fog 53 11.7 51 10.6 93 93 Calm 30.15 1021 1 1 0.00 0.00
6:08 am 06:08 Mostly Clear with Mist and Fog 53 11.7 51 10.6 93 93 Calm 30.15 1021 2 2 0.00 0.00
6:12 am 06:12 Mostly Clear with Mist and Fog 53 11.7 51 10.6 93 93 Calm 30.15 1021 1 1 0.00 0.00
6:30 am 06:30 Mostly Cloudy with Mist and Fog 53 11.7 51 10.6 93 93 Calm 30.15 1021 3 5 0.00 0.00
6:53 am 06:53 Cloudy with Mist and Fog 53 11.7 51 10.6 93 93 Calm 30.17 1022 3 5 0.00 0.00
7:53 am 07:53 Mostly Cloudy with Mist and Fog 58 14.4 56 13.3 93 93 Calm 30.19 1022 6 10 0.00 0.00
8:53 am 08:53 Sunny 63 17.2 58 14.4 84 84 Calm 30.20 1023 8 13 0.00 0.00
9:53 am 09:53 Sunny 69 20.6 59 15 70 70 WNW 6 9 30.21 1023 10 16 0.00 0.00
10:53 am 10:53 Partly Cloudy 73 22.8 61 16.1 66 66 W 8 13 30.19 1022 10 16 0.00 0.00
11:53 am 11:53 Mostly Cloudy 76 24.4 60 15.6 58 58 WNW 7 11 30.16 1021 10 16 0.00 0.00
12:53 pm 12:53 Mostly Sunny 77 25 58 14.4 52 52 W 8 13 30.13 1020 10 16 0.00 0.00
1:53 pm 13:53 Sunny 77 25 58 14.4 52 52 WSW 6 9 30.09 1019 10 16 0.00 0.00
2:53 pm 14:53 Sunny 77 25 58 14.4 52 52 Calm 30.08 1019 10 16 0.00 0.00
3:53 pm 15:53 Sunny 77 25 58 14.4 52 52 SSW 6 9 30.09 1019 10 16 0.00 0.00
4:53 pm 16:53 Partly Cloudy 74 23.3 58 14.4 57 57 SW 6 9 30.09 1019 10 16 0.00 0.00
5:53 pm 17:53 Clear 69 20.6 57 13.9 66 66 SSW 5 7 30.10 1019 10 16 0.00 0.00
6:53 pm 18:53 Clear 66 18.9 57 13.9 73 73 SSW 5 7 30.12 1020 10 16 0.00 0.00
7:53 pm 19:53 Clear 63 17.2 57 13.9 81 81 Calm 30.12 1020 10 16 0.00 0.00
8:53 pm 20:53 Clear 62 16.7 58 14.4 86 86 Calm 30.12 1020 10 16 0.00 0.00
9:53 pm 21:53 Clear with Mist and Fog 59 15 56 13.3 90 90 Calm 30.13 1020 5 8 0.00 0.00
10:53 pm 22:53 Clear 59 15 56 13.3 90 90 Calm 30.13 1020 9 14 0.00 0.00
11:53 pm 23:53 Clear 60 15.6 57 13.9 90 90 Calm 30.11 1020 9 14 0.00 0.00

Powered by AerisWeather